Location: Kalwaria Zebrzydowska
(49.8686°N, 19.6647°E)
Time: 07:17:04
(UTC+01:00)

ISS - Pass Details

Date: 25 January 2019
Orbit: 403 x 411 km, 51.6° (Epoch: 18 February)

Event Time Altitude Azimuth Distance (km) Brightness Sun altitude
Rises 16:53:26 0° 193° (SSW) 2,320 0.6 -5.1°
Reaches altitude 10° 16:56:27 10° 163° (SSE) 1,468 -0.9 -5.6°
Maximum altitude 16:57:54 12° 136° (SE) 1,335 -1.4 -5.8°
Drops below altitude 10° 16:59:21 10° 110° (ESE) 1,475 -1.4 -6.0°
Enters shadow 17:00:41 - 93° (E) 1,793 -1.1 -6.2°
